contact:dominique.lefevre@mio.osupytheas.fr, maurice.libes@osupytheas.fr, didier.mallarino@osupytheas.fr
Project:EMSO http://www.emso-fr.org/EMSO-France
Depth: 2436.0 m
Title:EMSO Ligure Ouest : Data MII capteur MICROCAT
DateTime_Computer,Latitude,Longitude,Temperature,Conductivity,Pressure,DateTime_Instrument
DateTime_Computer,Latitude,Longitude,degC,S m-1,dbar,DateTime_Instrument
2021-12-26T00:01:39Z,42.805,6.029,13.3006,4.60079,2470.343,2021-12-26T02:03:09Z
2021-12-26T00:04:43Z,42.805,6.029,13.3030,4.60079,2470.31,2021-12-26T02:06:12Z
2021-12-26T00:07:46Z,42.805,6.029,13.3027,4.60061,2470.343,2021-12-26T02:09:15Z
2021-12-26T00:10:49Z,42.805,6.029,13.3030,4.60082,2470.32,2021-12-26T02:12:18Z
2021-12-26T00:13:52Z,42.805,6.029,13.3021,4.60084,2470.31,2021-12-26T02:15:21Z
2021-12-26T00:16:55Z,42.805,6.029,13.3042,4.60090,2470.343,2021-12-26T02:18:24Z
2021-12-26T00:19:58Z,42.805,6.029,13.3038,4.60058,2470.287,2021-12-26T02:21:28Z
2021-12-26T00:23:01Z,42.805,6.029,13.3024,4.60092,2470.297,2021-12-26T02:24:31Z
2021-12-26T00:26:04Z,42.805,6.029,13.3014,4.60091,2470.297,2021-12-26T02:27:34Z
2021-12-26T00:29:08Z,42.805,6.029,13.3008,4.60083,2470.297,2021-12-26T02:30:37Z
2021-12-26T00:32:11Z,42.805,6.029,13.3024,4.60076,2470.32,2021-12-26T02:33:40Z
2021-12-26T00:35:14Z,42.805,6.029,13.3032,4.60089,2470.297,2021-12-26T02:36:43Z
2021-12-26T00:38:17Z,42.805,6.029,13.3038,4.60079,2470.297,2021-12-26T02:39:46Z
2021-12-26T00:41:20Z,42.805,6.029,13.3032,4.60092,2470.297,2021-12-26T02:42:49Z
2021-12-26T00:44:23Z,42.805,6.029,13.3015,4.60100,2470.31,2021-12-26T02:45:53Z
2021-12-26T00:47:26Z,42.805,6.029,13.3031,4.60088,2470.273,2021-12-26T02:48:56Z
2021-12-26T00:50:29Z,42.805,6.029,13.3034,4.60072,2470.287,2021-12-26T02:51:59Z
2021-12-26T00:53:33Z,42.805,6.029,13.3019,4.60086,2470.297,2021-12-26T02:55:02Z
2021-12-26T00:56:36Z,42.805,6.029,13.3034,4.60069,2470.32,2021-12-26T02:58:05Z
2021-12-26T00:59:39Z,42.805,6.029,13.3028,4.60093,2470.31,2021-12-26T03:01:08Z
2021-12-26T01:02:42Z,42.805,6.029,13.3036,4.60096,2470.287,2021-12-26T03:04:11Z
2021-12-26T01:05:45Z,42.805,6.029,13.3040,4.60069,2470.31,2021-12-26T03:07:14Z
2021-12-26T01:08:48Z,42.805,6.029,13.3021,4.60098,2470.287,2021-12-26T03:10:17Z
2021-12-26T01:11:51Z,42.805,6.029,13.3037,4.60087,2470.32,2021-12-26T03:13:21Z
2021-12-26T01:14:54Z,42.805,6.029,13.3025,4.60107,2470.334,2021-12-26T03:16:24Z
2021-12-26T01:17:58Z,42.805,6.029,13.3054,4.60117,2470.297,2021-12-26T03:19:27Z
2021-12-26T01:21:01Z,42.805,6.029,13.3031,4.60093,2470.31,2021-12-26T03:22:30Z
2021-12-26T01:24:04Z,42.805,6.029,13.3039,4.60087,2470.31,2021-12-26T03:25:33Z
2021-12-26T01:27:07Z,42.805,6.029,13.3054,4.60093,2470.31,2021-12-26T03:28:36Z
2021-12-26T01:30:10Z,42.805,6.029,13.3045,4.60116,2470.273,2021-12-26T03:31:39Z
2021-12-26T01:33:13Z,42.805,6.029,13.3048,4.60064,2470.297,2021-12-26T03:34:43Z
2021-12-26T01:36:16Z,42.805,6.029,13.3034,4.60053,2470.297,2021-12-26T03:37:46Z
2021-12-26T01:39:19Z,42.805,6.029,13.3047,4.60049,2470.297,2021-12-26T03:40:49Z
2021-12-26T01:42:23Z,42.805,6.029,13.3036,4.60099,2470.273,2021-12-26T03:43:52Z
2021-12-26T01:45:26Z,42.805,6.029,13.3043,4.60108,2470.273,2021-12-26T03:46:55Z
2021-12-26T01:48:29Z,42.805,6.029,13.3053,4.60123,2470.31,2021-12-26T03:49:58Z
2021-12-26T01:51:32Z,42.805,6.029,13.3050,4.60073,2470.297,2021-12-26T03:53:01Z
2021-12-26T01:54:35Z,42.805,6.029,13.3024,4.60090,2470.273,2021-12-26T03:56:04Z
2021-12-26T01:57:38Z,42.805,6.029,13.3034,4.60087,2470.264,2021-12-26T03:59:08Z
2021-12-26T02:00:41Z,42.805,6.029,13.3026,4.60092,2470.297,2021-12-26T04:02:11Z
2021-12-26T02:03:44Z,42.805,6.029,13.3067,4.60114,2470.287,2021-12-26T04:05:14Z
2021-12-26T02:06:48Z,42.805,6.029,13.3063,4.60160,2470.25,2021-12-26T04:08:17Z
2021-12-26T02:09:51Z,42.805,6.029,13.3048,4.60055,2470.273,2021-12-26T04:11:20Z
2021-12-26T02:12:54Z,42.805,6.029,13.3045,4.60050,2470.334,2021-12-26T04:14:23Z
2021-12-26T02:15:57Z,42.805,6.029,13.3034,4.60074,2470.287,2021-12-26T04:17:26Z
2021-12-26T02:19:00Z,42.805,6.029,13.3024,4.60032,2470.31,2021-12-26T04:20:29Z
2021-12-26T02:22:03Z,42.805,6.029,13.3038,4.60059,2470.25,2021-12-26T04:23:33Z
2021-12-26T02:25:06Z,42.805,6.029,13.3019,4.60069,2470.287,2021-12-26T04:26:36Z
2021-12-26T02:28:09Z,42.805,6.029,13.3011,4.60027,2470.273,2021-12-26T04:29:39Z
2021-12-26T02:31:13Z,42.805,6.029,13.3006,4.60041,2470.297,2021-12-26T04:32:42Z
2021-12-26T02:34:16Z,42.805,6.029,13.3023,4.60062,2470.264,2021-12-26T04:35:45Z
2021-12-26T02:37:19Z,42.805,6.029,13.3015,4.60055,2470.287,2021-12-26T04:38:48Z
2021-12-26T02:40:22Z,42.805,6.029,13.3008,4.60068,2470.287,2021-12-26T04:41:51Z
2021-12-26T02:43:25Z,42.805,6.029,13.3023,4.60038,2470.264,2021-12-26T04:44:54Z
2021-12-26T02:46:28Z,42.805,6.029,13.3024,4.60053,2470.273,2021-12-26T04:47:58Z
2021-12-26T02:49:31Z,42.805,6.029,13.3022,4.60061,2470.287,2021-12-26T04:51:01Z
2021-12-26T02:52:34Z,42.805,6.029,13.3021,4.60052,2470.287,2021-12-26T04:54:04Z
2021-12-26T02:55:38Z,42.805,6.029,13.3027,4.60070,2470.31,2021-12-26T04:57:07Z
2021-12-26T02:58:41Z,42.805,6.029,13.3014,4.60036,2470.297,2021-12-26T05:00:10Z
2021-12-26T03:01:44Z,42.805,6.029,13.3025,4.60047,2470.297,2021-12-26T05:03:13Z
2021-12-26T03:04:47Z,42.805,6.029,13.3014,4.60040,2470.287,2021-12-26T05:06:16Z
2021-12-26T03:07:50Z,42.805,6.029,13.3010,4.60049,2470.287,2021-12-26T05:09:19Z
2021-12-26T03:10:53Z,42.805,6.029,13.3017,4.60044,2470.287,2021-12-26T05:12:22Z
2021-12-26T03:13:56Z,42.805,6.029,13.3015,4.60038,2470.264,2021-12-26T05:15:26Z
2021-12-26T03:16:59Z,42.805,6.029,13.3026,4.60053,2470.287,2021-12-26T05:18:29Z
2021-12-26T03:20:03Z,42.805,6.029,13.3010,4.60052,2470.25,2021-12-26T05:21:32Z
2021-12-26T03:23:06Z,42.805,6.029,13.3029,4.60048,2470.287,2021-12-26T05:24:35Z
2021-12-26T03:26:09Z,42.805,6.029,13.3034,4.60051,2470.273,2021-12-26T05:27:38Z
2021-12-26T03:29:12Z,42.805,6.029,13.3009,4.60044,2470.264,2021-12-26T05:30:41Z
2021-12-26T03:32:15Z,42.805,6.029,13.3006,4.60051,2470.273,2021-12-26T05:33:44Z
2021-12-26T03:35:18Z,42.805,6.029,13.3014,4.60061,2470.287,2021-12-26T05:36:47Z
2021-12-26T03:38:21Z,42.805,6.029,13.3020,4.60042,2470.287,2021-12-26T05:39:51Z
2021-12-26T03:41:24Z,42.805,6.029,13.3009,4.60052,2470.264,2021-12-26T05:42:54Z
2021-12-26T03:44:27Z,42.805,6.029,13.3012,4.60046,2470.25,2021-12-26T05:45:57Z
2021-12-26T03:47:31Z,42.805,6.029,13.3019,4.60048,2470.287,2021-12-26T05:49:00Z
2021-12-26T03:50:34Z,42.805,6.029,13.3029,4.60047,2470.264,2021-12-26T05:52:03Z
2021-12-26T03:53:37Z,42.805,6.029,13.3027,4.60052,2470.264,2021-12-26T05:55:06Z
2021-12-26T03:56:40Z,42.805,6.029,13.3009,4.60047,2470.287,2021-12-26T05:58:09Z
2021-12-26T03:59:43Z,42.805,6.029,13.3026,4.60044,2470.264,2021-12-26T06:01:12Z
2021-12-26T04:02:46Z,42.805,6.029,13.3024,4.60039,2470.25,2021-12-26T06:04:16Z
2021-12-26T04:05:49Z,42.805,6.029,13.3015,4.60042,2470.287,2021-12-26T06:07:19Z
2021-12-26T04:08:52Z,42.805,6.029,13.3016,4.60053,2470.287,2021-12-26T06:10:22Z
2021-12-26T04:11:56Z,42.805,6.029,13.3016,4.60042,2470.273,2021-12-26T06:13:25Z
2021-12-26T04:14:59Z,42.805,6.029,13.3019,4.60044,2470.287,2021-12-26T06:16:28Z
2021-12-26T04:18:02Z,42.805,6.029,13.3022,4.60039,2470.287,2021-12-26T06:19:31Z
2021-12-26T04:21:05Z,42.805,6.029,13.3021,4.60043,2470.24,2021-12-26T06:22:34Z
2021-12-26T04:24:08Z,42.805,6.029,13.3019,4.60039,2470.287,2021-12-26T06:25:37Z
2021-12-26T04:27:11Z,42.805,6.029,13.3023,4.60044,2470.273,2021-12-26T06:28:41Z
2021-12-26T04:30:14Z,42.805,6.029,13.3018,4.60039,2470.273,2021-12-26T06:31:44Z
2021-12-26T04:33:17Z,42.805,6.029,13.3026,4.60035,2470.264,2021-12-26T06:34:47Z
2021-12-26T04:36:21Z,42.805,6.029,13.3021,4.60039,2470.264,2021-12-26T06:37:50Z
2021-12-26T04:39:24Z,42.805,6.029,13.3024,4.60029,2470.273,2021-12-26T06:40:53Z
2021-12-26T04:42:27Z,42.805,6.029,13.3014,4.60031,2470.25,2021-12-26T06:43:56Z
2021-12-26T04:45:30Z,42.805,6.029,13.3024,4.60039,2470.25,2021-12-26T06:46:59Z
2021-12-26T04:48:33Z,42.805,6.029,13.3027,4.60050,2470.264,2021-12-26T06:50:02Z
2021-12-26T04:51:36Z,42.805,6.029,13.3014,4.60033,2470.227,2021-12-26T06:53:06Z
2021-12-26T04:54:39Z,42.805,6.029,13.3016,4.60050,2470.25,2021-12-26T06:56:09Z
2021-12-26T04:57:42Z,42.805,6.029,13.3024,4.60033,2470.24,2021-12-26T06:59:12Z
2021-12-26T05:00:46Z,42.805,6.029,13.3022,4.60043,2470.287,2021-12-26T07:02:15Z
2021-12-26T05:03:49Z,42.805,6.029,13.3024,4.60044,2470.217,2021-12-26T07:05:18Z
2021-12-26T05:06:52Z,42.805,6.029,13.3036,4.60043,2470.24,2021-12-26T07:08:21Z
2021-12-26T05:09:55Z,42.805,6.029,13.3034,4.60041,2470.264,2021-12-26T07:11:24Z
2021-12-26T05:12:58Z,42.805,6.029,13.3029,4.60039,2470.31,2021-12-26T07:14:27Z
2021-12-26T05:16:01Z,42.805,6.029,13.3025,4.60044,2470.273,2021-12-26T07:17:31Z
2021-12-26T05:19:04Z,42.805,6.029,13.3024,4.60039,2470.287,2021-12-26T07:20:34Z
2021-12-26T05:22:07Z,42.805,6.029,13.3037,4.60044,2470.264,2021-12-26T07:23:37Z
2021-12-26T05:25:11Z,42.805,6.029,13.3024,4.60044,2470.25,2021-12-26T07:26:40Z
2021-12-26T05:28:14Z,42.805,6.029,13.3024,4.60051,2470.273,2021-12-26T07:29:43Z
2021-12-26T05:31:17Z,42.805,6.029,13.3026,4.60050,2470.25,2021-12-26T07:32:46Z
2021-12-26T05:34:20Z,42.805,6.029,13.3030,4.60046,2470.25,2021-12-26T07:35:49Z
2021-12-26T05:37:23Z,42.805,6.029,13.3021,4.60033,2470.25,2021-12-26T07:38:52Z
2021-12-26T05:40:26Z,42.805,6.029,13.3024,4.60041,2470.227,2021-12-26T07:41:56Z
2021-12-26T05:43:29Z,42.805,6.029,13.3021,4.60046,2470.264,2021-12-26T07:44:59Z
2021-12-26T05:46:32Z,42.805,6.029,13.3034,4.60045,2470.264,2021-12-26T07:48:02Z
2021-12-26T05:49:36Z,42.805,6.029,13.3039,4.60038,2470.264,2021-12-26T07:51:05Z
2021-12-26T05:52:39Z,42.805,6.029,13.3019,4.60047,2470.203,2021-12-26T07:54:08Z
2021-12-26T05:55:42Z,42.805,6.029,13.3019,4.60045,2470.227,2021-12-26T07:57:11Z
2021-12-26T05:58:45Z,42.805,6.029,13.3026,4.60046,2470.264,2021-12-26T08:00:14Z
2021-12-26T06:01:48Z,42.805,6.029,13.3021,4.60035,2470.227,2021-12-26T08:03:17Z
2021-12-26T06:04:51Z,42.805,6.029,13.3028,4.60046,2470.203,2021-12-26T08:06:21Z
2021-12-26T06:07:54Z,42.805,6.029,13.3024,4.60043,2470.25,2021-12-26T08:09:24Z
2021-12-26T06:10:57Z,42.805,6.029,13.3029,4.60042,2470.25,2021-12-26T08:12:27Z
2021-12-26T06:14:01Z,42.805,6.029,13.3024,4.60035,2470.264,2021-12-26T08:15:30Z
2021-12-26T06:17:04Z,42.805,6.029,13.3034,4.60053,2470.25,2021-12-26T08:18:33Z
2021-12-26T06:20:07Z,42.805,6.029,13.3033,4.60039,2470.24,2021-12-26T08:21:36Z
2021-12-26T06:23:10Z,42.805,6.029,13.3018,4.60032,2470.264,2021-12-26T08:24:39Z
2021-12-26T06:26:13Z,42.805,6.029,13.3021,4.60043,2470.25,2021-12-26T08:27:42Z
2021-12-26T06:29:16Z,42.805,6.029,13.3036,4.60042,2470.227,2021-12-26T08:30:45Z
2021-12-26T06:32:19Z,42.805,6.029,13.3022,4.60041,2470.24,2021-12-26T08:33:49Z
2021-12-26T06:35:22Z,42.805,6.029,13.3022,4.60041,2470.264,2021-12-26T08:36:52Z
2021-12-26T06:38:26Z,42.805,6.029,13.3025,4.60040,2470.227,2021-12-26T08:39:55Z
2021-12-26T06:41:29Z,42.805,6.029,13.3024,4.60031,2470.264,2021-12-26T08:42:58Z
2021-12-26T06:44:32Z,42.805,6.029,13.3026,4.60040,2470.24,2021-12-26T08:46:01Z
2021-12-26T06:47:35Z,42.805,6.029,13.3016,4.60034,2470.24,2021-12-26T08:49:04Z
2021-12-26T06:50:38Z,42.805,6.029,13.3016,4.60044,2470.273,2021-12-26T08:52:07Z
2021-12-26T06:53:41Z,42.805,6.029,13.3017,4.60039,2470.264,2021-12-26T08:55:10Z
2021-12-26T06:56:44Z,42.805,6.029,13.3035,4.60033,2470.24,2021-12-26T08:58:14Z
2021-12-26T06:59:47Z,42.805,6.029,13.3029,4.60032,2470.24,2021-12-26T09:01:17Z
2021-12-26T07:02:51Z,42.805,6.029,13.3026,4.60045,2470.25,2021-12-26T09:04:20Z
2021-12-26T07:05:54Z,42.805,6.029,13.3014,4.60042,2470.264,2021-12-26T09:07:23Z
2021-12-26T07:08:57Z,42.805,6.029,13.3016,4.60046,2470.217,2021-12-26T09:10:26Z
2021-12-26T07:12:00Z,42.805,6.029,13.3023,4.60047,2470.25,2021-12-26T09:13:29Z
2021-12-26T07:15:03Z,42.805,6.029,13.3026,4.60047,2470.287,2021-12-26T09:16:32Z
2021-12-26T07:18:06Z,42.805,6.029,13.3021,4.60045,2470.273,2021-12-26T09:19:35Z
2021-12-26T07:21:09Z,42.805,6.029,13.3029,4.60039,2470.24,2021-12-26T09:22:39Z
2021-12-26T07:24:12Z,42.805,6.029,13.3017,4.60036,2470.189,2021-12-26T09:25:42Z
2021-12-26T07:27:16Z,42.805,6.029,13.3023,4.60037,2470.227,2021-12-26T09:28:45Z
2021-12-26T07:30:19Z,42.805,6.029,13.3015,4.60029,2470.25,2021-12-26T09:31:48Z
2021-12-26T07:33:22Z,42.805,6.029,13.3016,4.60031,2470.25,2021-12-26T09:34:51Z
2021-12-26T07:36:25Z,42.805,6.029,13.3015,4.60043,2470.227,2021-12-26T09:37:54Z
2021-12-26T07:39:28Z,42.805,6.029,13.3011,4.60045,2470.25,2021-12-26T09:40:57Z
2021-12-26T07:42:31Z,42.805,6.029,13.3026,4.60044,2470.273,2021-12-26T09:44:00Z
2021-12-26T07:45:34Z,42.805,6.029,13.3022,4.60046,2470.287,2021-12-26T09:47:04Z
2021-12-26T07:48:37Z,42.805,6.029,13.3021,4.60046,2470.264,2021-12-26T09:50:07Z
2021-12-26T07:51:40Z,42.805,6.029,13.3021,4.60045,2470.264,2021-12-26T09:53:10Z
2021-12-26T07:54:44Z,42.805,6.029,13.3026,4.60044,2470.25,2021-12-26T09:56:13Z
2021-12-26T07:57:47Z,42.805,6.029,13.3029,4.60054,2470.24,2021-12-26T09:59:16Z
2021-12-26T08:00:50Z,42.805,6.029,13.3022,4.60054,2470.25,2021-12-26T10:02:19Z
2021-12-26T08:03:53Z,42.805,6.029,13.3031,4.60051,2470.31,2021-12-26T10:05:22Z
2021-12-26T08:06:56Z,42.805,6.029,13.3044,4.60069,2470.287,2021-12-26T10:08:25Z
2021-12-26T08:09:59Z,42.805,6.029,13.3043,4.60052,2470.25,2021-12-26T10:11:29Z
2021-12-26T08:13:02Z,42.805,6.029,13.3031,4.60053,2470.264,2021-12-26T10:14:32Z
2021-12-26T08:16:05Z,42.805,6.029,13.3036,4.60075,2470.25,2021-12-26T10:17:35Z
2021-12-26T08:19:09Z,42.805,6.029,13.3050,4.60084,2470.287,2021-12-26T10:20:38Z
2021-12-26T08:22:12Z,42.805,6.029,13.3041,4.60068,2470.25,2021-12-26T10:23:41Z
2021-12-26T08:25:15Z,42.805,6.029,13.3041,4.60064,2470.287,2021-12-26T10:26:44Z
2021-12-26T08:28:18Z,42.805,6.029,13.3057,4.60067,2470.25,2021-12-26T10:29:47Z
2021-12-26T08:31:21Z,42.805,6.029,13.3043,4.60115,2470.287,2021-12-26T10:32:51Z
2021-12-26T08:34:24Z,42.805,6.029,13.3056,4.60068,2470.273,2021-12-26T10:35:54Z
2021-12-26T08:37:27Z,42.805,6.029,13.3044,4.60097,2470.264,2021-12-26T10:38:57Z
2021-12-26T08:40:31Z,42.805,6.029,13.3161,4.60103,2470.31,2021-12-26T10:42:00Z
2021-12-26T08:43:34Z,42.805,6.029,13.3139,4.60087,2470.334,2021-12-26T10:45:03Z
2021-12-26T08:46:37Z,42.805,6.029,13.3039,4.60066,2470.273,2021-12-26T10:48:06Z
2021-12-26T08:49:40Z,42.805,6.029,13.3070,4.60083,2470.31,2021-12-26T10:51:09Z
2021-12-26T08:52:43Z,42.805,6.029,13.3074,4.60075,2470.287,2021-12-26T10:54:12Z
2021-12-26T08:55:46Z,42.805,6.029,13.3057,4.60063,2470.31,2021-12-26T10:57:16Z
2021-12-26T08:58:49Z,42.805,6.029,13.3073,4.60061,2470.287,2021-12-26T11:00:19Z
2021-12-26T09:01:52Z,42.805,6.029,13.3067,4.60064,2470.287,2021-12-26T11:03:22Z
2021-12-26T09:04:56Z,42.805,6.029,13.3069,4.60080,2470.32,2021-12-26T11:06:25Z
2021-12-26T09:07:59Z,42.805,6.029,13.3063,4.60054,2470.273,2021-12-26T11:09:28Z
2021-12-26T09:11:02Z,42.805,6.029,13.3074,4.60072,2470.287,2021-12-26T11:12:31Z
2021-12-26T09:14:05Z,42.805,6.029,13.3056,4.60099,2470.31,2021-12-26T11:15:34Z
2021-12-26T09:17:08Z,42.805,6.029,13.3043,4.60078,2470.334,2021-12-26T11:18:37Z
2021-12-26T09:20:11Z,42.805,6.029,13.3021,4.60098,2470.31,2021-12-26T11:21:41Z
2021-12-26T09:23:14Z,42.805,6.029,13.3034,4.60103,2470.297,2021-12-26T11:24:44Z
2021-12-26T09:26:17Z,42.805,6.029,13.2996,4.60122,2470.334,2021-12-26T11:27:47Z
2021-12-26T09:29:21Z,42.805,6.029,13.2998,4.60164,2470.334,2021-12-26T11:30:50Z
2021-12-26T09:32:24Z,42.805,6.029,13.2996,4.60089,2470.297,2021-12-26T11:33:53Z
2021-12-26T09:35:27Z,42.805,6.029,13.2996,4.60074,2470.343,2021-12-26T11:36:56Z
2021-12-26T09:38:30Z,42.805,6.029,13.2998,4.60080,2470.366,2021-12-26T11:39:59Z
2021-12-26T09:41:33Z,42.805,6.029,13.3007,4.60057,2470.31,2021-12-26T11:43:02Z
2021-12-26T09:44:36Z,42.805,6.029,13.3030,4.60079,2470.297,2021-12-26T11:46:06Z
2021-12-26T09:47:39Z,42.805,6.029,13.2997,4.60129,2470.297,2021-12-26T11:49:09Z
2021-12-26T09:50:42Z,42.805,6.029,13.3005,4.60067,2470.343,2021-12-26T11:52:12Z
2021-12-26T09:53:46Z,42.805,6.029,13.3010,4.60122,2470.32,2021-12-26T11:55:15Z
2021-12-26T09:56:49Z,42.805,6.029,13.2999,4.60064,2470.357,2021-12-26T11:58:18Z
2021-12-26T09:59:52Z,42.805,6.029,13.3002,4.60054,2470.343,2021-12-26T12:01:21Z
2021-12-26T10:02:55Z,42.805,6.029,13.2997,4.60052,2470.32,2021-12-26T12:04:24Z
2021-12-26T10:05:58Z,42.805,6.029,13.3004,4.60122,2470.357,2021-12-26T12:07:27Z
2021-12-26T10:09:01Z,42.805,6.029,13.3001,4.60101,2470.343,2021-12-26T12:10:31Z
2021-12-26T10:12:04Z,42.805,6.029,13.3019,4.60052,2470.32,2021-12-26T12:13:34Z
2021-12-26T10:15:07Z,42.805,6.029,13.3014,4.60043,2470.32,2021-12-26T12:16:37Z
2021-12-26T10:18:11Z,42.805,6.029,13.3017,4.60029,2470.38,2021-12-26T12:19:40Z
2021-12-26T10:21:14Z,42.805,6.029,13.3018,4.60029,2470.366,2021-12-26T12:22:43Z
2021-12-26T10:24:17Z,42.805,6.029,13.3017,4.60033,2470.343,2021-12-26T12:25:46Z
2021-12-26T10:27:20Z,42.805,6.029,13.3021,4.60049,2470.343,2021-12-26T12:28:49Z
2021-12-26T10:30:23Z,42.805,6.029,13.3010,4.60026,2470.357,2021-12-26T12:31:52Z
2021-12-26T10:33:26Z,42.805,6.029,13.3003,4.60036,2470.39,2021-12-26T12:34:56Z
2021-12-26T10:36:29Z,42.805,6.029,13.3011,4.60043,2470.343,2021-12-26T12:37:59Z
2021-12-26T10:39:32Z,42.805,6.029,13.3005,4.60037,2470.32,2021-12-26T12:41:02Z
2021-12-26T10:42:36Z,42.805,6.029,13.3001,4.60049,2470.32,2021-12-26T12:44:05Z
2021-12-26T10:45:39Z,42.805,6.029,13.3004,4.60060,2470.343,2021-12-26T12:47:08Z
2021-12-26T10:48:42Z,42.805,6.029,13.2998,4.60034,2470.343,2021-12-26T12:50:11Z
2021-12-26T10:51:45Z,42.805,6.029,13.2996,4.60036,2470.32,2021-12-26T12:53:14Z
2021-12-26T10:54:48Z,42.805,6.029,13.2995,4.60026,2470.334,2021-12-26T12:56:17Z
2021-12-26T10:57:51Z,42.805,6.029,13.2996,4.60026,2470.357,2021-12-26T12:59:21Z
2021-12-26T11:00:54Z,42.805,6.029,13.2995,4.60029,2470.357,2021-12-26T13:02:24Z
2021-12-26T11:03:58Z,42.805,6.029,13.2998,4.60033,2470.366,2021-12-26T13:05:27Z
2021-12-26T11:07:01Z,42.805,6.029,13.2996,4.60033,2470.343,2021-12-26T13:08:30Z
2021-12-26T11:10:04Z,42.805,6.029,13.3099,4.60029,2470.343,2021-12-26T13:11:33Z
2021-12-26T11:13:07Z,42.805,6.029,13.2993,4.60106,2470.343,2021-12-26T13:14:36Z
2021-12-26T11:16:10Z,42.805,6.029,13.2993,4.60064,2470.334,2021-12-26T13:17:39Z
2021-12-26T11:19:13Z,42.805,6.029,13.2997,4.60026,2470.38,2021-12-26T13:20:43Z
2021-12-26T11:22:16Z,42.805,6.029,13.2998,4.60026,2470.343,2021-12-26T13:23:46Z
2021-12-26T11:25:19Z,42.805,6.029,13.2996,4.60082,2470.32,2021-12-26T13:26:49Z
2021-12-26T11:28:23Z,42.805,6.029,13.2996,4.60132,2470.366,2021-12-26T13:29:52Z
2021-12-26T11:31:26Z,42.805,6.029,13.2997,4.60064,2470.357,2021-12-26T13:32:55Z
2021-12-26T11:34:29Z,42.805,6.029,13.2998,4.60052,2470.366,2021-12-26T13:35:58Z
2021-12-26T11:37:32Z,42.805,6.029,13.3027,4.60031,2470.297,2021-12-26T13:39:01Z
2021-12-26T11:40:35Z,42.805,6.029,13.3005,4.60067,2470.357,2021-12-26T13:42:04Z
2021-12-26T11:43:38Z,42.805,6.029,13.3011,4.60161,2470.357,2021-12-26T13:45:08Z
2021-12-26T11:46:41Z,42.805,6.029,13.2996,4.60058,2470.32,2021-12-26T13:48:11Z
2021-12-26T11:49:44Z,42.805,6.029,13.2993,4.60067,2470.334,2021-12-26T13:51:14Z
2021-12-26T11:52:48Z,42.805,6.029,13.2993,4.60067,2470.357,2021-12-26T13:54:17Z
2021-12-26T11:55:51Z,42.805,6.029,13.3091,4.60042,2470.343,2021-12-26T13:57:20Z
2021-12-26T11:58:54Z,42.805,6.029,13.3000,4.60049,2470.366,2021-12-26T14:00:23Z
2021-12-26T12:01:57Z,42.805,6.029,13.2996,4.60053,2470.357,2021-12-26T14:03:26Z
2021-12-26T12:05:00Z,42.805,6.029,13.3009,4.60036,2470.343,2021-12-26T14:06:29Z
2021-12-26T12:08:03Z,42.805,6.029,13.3026,4.60052,2470.357,2021-12-26T14:09:33Z
2021-12-26T12:11:06Z,42.805,6.029,13.3043,4.60046,2470.343,2021-12-26T14:12:36Z
2021-12-26T12:14:09Z,42.805,6.029,13.3021,4.60027,2470.334,2021-12-26T14:15:39Z
2021-12-26T12:17:13Z,42.805,6.029,13.3008,4.60040,2470.366,2021-12-26T14:18:42Z
2021-12-26T12:20:16Z,42.805,6.029,13.3041,4.60041,2470.297,2021-12-26T14:21:45Z
2021-12-26T12:23:19Z,42.805,6.029,13.3027,4.60079,2470.357,2021-12-26T14:24:48Z
2021-12-26T12:26:22Z,42.805,6.029,13.3026,4.60088,2470.334,2021-12-26T14:27:51Z
2021-12-26T12:29:25Z,42.805,6.029,13.3040,4.60064,2470.297,2021-12-26T14:30:54Z
2021-12-26T12:32:28Z,42.805,6.029,13.3033,4.60052,2470.32,2021-12-26T14:33:58Z
2021-12-26T12:35:31Z,42.805,6.029,13.3024,4.60111,2470.334,2021-12-26T14:37:01Z
2021-12-26T12:38:35Z,42.805,6.029,13.3035,4.60067,2470.297,2021-12-26T14:40:04Z
2021-12-26T12:41:38Z,42.805,6.029,13.3030,4.60077,2470.31,2021-12-26T14:43:07Z
2021-12-26T12:44:41Z,42.805,6.029,13.3031,4.60088,2470.31,2021-12-26T14:46:10Z
2021-12-26T12:47:44Z,42.805,6.029,13.3034,4.60072,2470.334,2021-12-26T14:49:13Z
2021-12-26T12:50:47Z,42.805,6.029,13.3015,4.60074,2470.31,2021-12-26T14:52:16Z
2021-12-26T12:53:50Z,42.805,6.029,13.3030,4.60068,2470.334,2021-12-26T14:55:20Z
2021-12-26T12:56:53Z,42.805,6.029,13.3054,4.60097,2470.31,2021-12-26T14:58:23Z
2021-12-26T12:59:56Z,42.805,6.029,13.3071,4.60063,2470.32,2021-12-26T15:01:26Z
2021-12-26T13:03:00Z,42.805,6.029,13.3064,4.60049,2470.32,2021-12-26T15:04:29Z
2021-12-26T13:06:03Z,42.805,6.029,13.3104,4.60076,2470.324,2021-12-26T15:07:32Z
2021-12-26T13:09:06Z,42.805,6.029,13.3019,4.60078,2470.32,2021-12-26T15:10:35Z
2021-12-26T13:12:09Z,42.805,6.029,13.3028,4.60116,2470.297,2021-12-26T15:13:38Z
2021-12-26T13:15:12Z,42.805,6.029,13.3019,4.60064,2470.32,2021-12-26T15:16:41Z
2021-12-26T13:18:15Z,42.805,6.029,13.3043,4.60064,2470.334,2021-12-26T15:19:45Z
2021-12-26T13:21:18Z,42.805,6.029,13.3010,4.60103,2470.32,2021-12-26T15:22:48Z
2021-12-26T13:24:21Z,42.805,6.029,13.3040,4.60063,2470.343,2021-12-26T15:25:51Z
2021-12-26T13:27:25Z,42.805,6.029,13.3039,4.60080,2470.32,2021-12-26T15:28:54Z
2021-12-26T13:30:28Z,42.805,6.029,13.3010,4.60089,2470.273,2021-12-26T15:31:57Z
2021-12-26T13:33:31Z,42.805,6.029,13.3024,4.60095,2470.31,2021-12-26T15:35:00Z
2021-12-26T13:36:34Z,42.805,6.029,13.3025,4.60097,2470.31,2021-12-26T15:38:03Z
2021-12-26T13:39:37Z,42.805,6.029,13.3031,4.60087,2470.31,2021-12-26T15:41:06Z
2021-12-26T13:42:40Z,42.805,6.029,13.3034,4.60110,2470.297,2021-12-26T15:44:10Z
2021-12-26T13:45:43Z,42.805,6.029,13.3029,4.60126,2470.334,2021-12-26T15:47:13Z
2021-12-26T13:48:46Z,42.805,6.029,13.3017,4.60160,2470.32,2021-12-26T15:50:16Z
2021-12-26T13:51:50Z,42.805,6.029,13.3034,4.60102,2470.31,2021-12-26T15:53:19Z
2021-12-26T13:54:53Z,42.805,6.029,13.3021,4.60147,2470.32,2021-12-26T15:56:22Z
2021-12-26T13:57:56Z,42.805,6.029,13.3018,4.60092,2470.287,2021-12-26T15:59:25Z
2021-12-26T14:00:59Z,42.805,6.029,13.3027,4.60076,2470.297,2021-12-26T16:02:28Z
2021-12-26T14:04:02Z,42.805,6.029,13.3014,4.60090,2470.273,2021-12-26T16:05:32Z
2021-12-26T14:07:05Z,42.805,6.029,13.3031,4.60105,2470.273,2021-12-26T16:08:35Z
2021-12-26T14:10:08Z,42.805,6.029,13.3029,4.60110,2470.334,2021-12-26T16:11:38Z
2021-12-26T14:13:12Z,42.805,6.029,13.3015,4.60135,2470.297,2021-12-26T16:14:41Z
2021-12-26T14:16:15Z,42.805,6.029,13.3020,4.60103,2470.273,2021-12-26T16:17:44Z
2021-12-26T14:19:18Z,42.805,6.029,13.3031,4.60127,2470.273,2021-12-26T16:20:47Z
2021-12-26T14:22:21Z,42.805,6.029,13.3028,4.60089,2470.264,2021-12-26T16:23:50Z
2021-12-26T14:25:24Z,42.805,6.029,13.3023,4.60132,2470.273,2021-12-26T16:26:53Z
2021-12-26T14:28:27Z,42.805,6.029,13.3011,4.60138,2470.24,2021-12-26T16:29:57Z
2021-12-26T14:31:30Z,42.805,6.029,13.3021,4.60108,2470.297,2021-12-26T16:33:00Z
2021-12-26T14:34:33Z,42.805,6.029,13.3016,4.60104,2470.287,2021-12-26T16:36:03Z
2021-12-26T14:37:37Z,42.805,6.029,13.3013,4.60099,2470.287,2021-12-26T16:39:06Z
2021-12-26T14:40:40Z,42.805,6.029,13.3008,4.60111,2470.25,2021-12-26T16:42:09Z
2021-12-26T14:43:43Z,42.805,6.029,13.3011,4.60094,2470.273,2021-12-26T16:45:12Z
2021-12-26T14:46:46Z,42.805,6.029,13.3012,4.60117,2470.25,2021-12-26T16:48:15Z
2021-12-26T14:49:49Z,42.805,6.029,13.3010,4.60092,2470.25,2021-12-26T16:51:18Z
2021-12-26T14:52:52Z,42.805,6.029,13.3009,4.60109,2470.264,2021-12-26T16:54:22Z
2021-12-26T14:55:55Z,42.805,6.029,13.3004,4.60079,2470.31,2021-12-26T16:57:25Z
2021-12-26T14:58:58Z,42.805,6.029,13.3014,4.60087,2470.25,2021-12-26T17:00:28Z
2021-12-26T15:02:02Z,42.805,6.029,13.3010,4.60122,2470.287,2021-12-26T17:03:31Z